Regional Weather Roundup
Issued by NWS

Home | Current Version | Previous Version | Graphics & Text | Print | Product List | Glossary On
Versions: 1 2 3 4 5 6 7 8 9 10 11 12 13 14 15 16 17 18 19 20 21 22 23 24 25 26 27 28 29 30 31 32 33 34 35 36 37 38 39 40 41 42 43 44 45 46 47 48 49 50
359
ASUS43 KLOT 231002
RWRIL

ILLINOIS REGIONAL WEATHER ROUNDUP
NATIONAL WEATHER SERVICE CHICAGO/ROMEOVILLE IL
500 AM CDT THU MAR 23 2017

NOTE: "FAIR" INDICATES FEW OR NO CLOUDS BELOW 12,000 FEET WITH NO
SIGNIFICANT WEATHER AND/OR OBSTRUCTIONS TO VISIBILITY.

* THESE STATIONS ARE NOT UNDER NWS QUALITY CONTROL. THEY ALSO MAY NOT
  REPORT WEATHER SUCH AS PRECIPITATION OR FOG.

ILZ001-002-007-009-015-016-024-231100-
NORTHWEST ILLINOIS

CITY           SKY/WX    TMP DP  RH WIND       PRES   REMARKS
MOLINE         CLOUDY    34  23  64 E9        30.34S WCI  27
STERLING*      PTCLDY    31  23  72 E8        30.37F WCI  23
SAVANNA*       CLOUDY    31  21  66 SE6       30.36F WCI  25
$$

ILZ003-004-008-010-011-017-018-231100-
NORTH CENTRAL ILLINOIS

CITY           SKY/WX    TMP DP  RH WIND       PRES   REMARKS
ROCKFORD       CLOUDY    33  21  61 SE8       30.41S WCI  26
FREEPORT*      CLOUDY    31  21  67 SE8       30.39F WCI  23
ROCHELLE*      CLOUDY    32  21  64 SE13      30.39S WCI  23
DE KALB*       CLOUDY    32  21  64 SE10      30.40R WCI  24
PERU*          CLOUDY    32  21  65 SE13      30.38F WCI  22
$$

ILZ005-006-012>014-019>023-231100-
NORTHEAST ILLINOIS

CITY           SKY/WX    TMP DP  RH WIND       PRES   REMARKS
CHICAGO-OHARE  CLOUDY    33  19  56 SE14      30.41F WCI  23
CHICAGO-MIDWAY MOCLDY    32  20  61 SE8       30.43S WCI  25
AURORA         CLOUDY    34  20  56 SE12      30.40S WCI  25
LANSING*       CLOUDY    30  23  75 SE7       30.43S WCI  23
JOLIET*        CLOUDY    33  23  66 SE7       30.42R WCI  27
WAUKEGAN       CLOUDY    33  23  66 S13       30.41F WCI  24
DUPAGE AIRPORT CLOUDY    32  21  64 SE8       30.40S WCI  25
KANKAKEE*      CLOUDY    31  22  70 SE10G16   30.42S WCI  22
WHEELING       CLOUDY    32  21  64 SE7       30.43S WCI  26
MORRIS*        CLOUDY    32  22  66 SE9       30.40S WCI  24
NORTHERLY ISL    N/A     32  23  70 SE9         N/A  WCI  24
$$

LMZ740>746-231100-
SOUTHERN LAKE MICHIGAN

STATION/POSITION SKY/WX   TEMP    WIND        PRES    VSBY  WAVE
                          AIR SEA DIR/SP/G                  HT/PER
                          (F)     (DEG/KT/KT) (MB)    (MI)  (FT/S)
HARRISON CRIB              34     160/ 17/ 21   N/A
BURNHAM HARBOR             33     110/  8/ 14   N/A
CALUMET HARBOR             31     140/  7/  8 1029.4F
BURNS HARBOR               31     150/ 10/ 17 1030.8S
MICHIGAN CITY              29     130/ 11/ 14   N/A
$$

ILZ025>027-034>036-040-047-049-050-058-095>099-231100-
WEST-CENTRAL ILLINOIS

CITY           SKY/WX    TMP DP  RH WIND       PRES   REMARKS
QUINCY         CLOUDY    39  21  48 SE14      30.26S WCI  31
GALESBURG*     CLOUDY    35  24  64 SE8         N/A  WCI  28
MACOMB*        CLOUDY    36  23  59 SE13      30.33S WCI  27
JACKSONVILLE*  CLOUDY    36  21  54 SE12      30.32R WCI  28
PITTSFIELD*    CLOUDY    39  23  51 E7        30.30S WCI  34
$$

ILZ028>032-037-038-041>044-048-051>054-059>061-231100-
CENTRAL ILLINOIS

CITY           SKY/WX    TMP DP  RH WIND       PRES   REMARKS
PONTIAC        MOCLDY    31  26  83 E10       30.40S WCI  22
BLOOMINGTON    CLOUDY    29  23  78 SE12      30.37R WCI  19
DECATUR        CLOUDY    34  21  59 E13       30.35S WCI  25
PEORIA         CLOUDY    35  22  58 SE9       30.35S WCI  28
LACON*         CLOUDY    32  25  74 SE8       30.36S WCI  25
LINCOLN*       CLOUDY    35  24  64 SE6       30.36S WCI  30
SPRINGFIELD    CLOUDY    37  21  52 SE13      30.33S WCI  29
TAYLORVILLE    CLOUDY    36  22  57 E12       30.33R WCI  27
$$

ILZ033-039-045-046-055>057-062-063-231100-
EAST-CENTRAL ILLINOIS

CITY           SKY/WX    TMP DP  RH WIND       PRES   REMARKS
CHAMPAIGN      PTCLDY    31  22  69 E10       30.37R WCI  22
RANTOUL*       PTCLDY    31  26  81 E8        30.38F WCI  24
MATTOON        CLOUDY    34  22  61 SE13      30.35S WCI  25
$$

ILZ079-100>102-231100-
SOUTHWEST ILLINOIS

CITY           SKY/WX    TMP DP  RH WIND       PRES   REMARKS
ALTON          CLOUDY    39  22  51 SE9       30.31S WCI  33
BELLEVILLE     CLOUDY    40  23  52 E6        30.31S
CAHOKIA*       LGT RAIN  40  24  53 SE9       30.30F
SPARTA*        CLOUDY    40  23  49 SE3       30.31F
$$

ILZ064>066-069>071-074>076-080>082-084>086-088>090-092>094-231100-
SOUTH-CENTRAL ILLINOIS

CITY           SKY/WX    TMP DP  RH WIND       PRES   REMARKS
CARBONDALE     CLOUDY    41  24  51 E8        30.31S
CAIRO*         CLOUDY    43  26  51 E8        30.29S
EFFINGHAM*     CLOUDY    36  24  64 E10       30.37S WCI  28
MARION         CLOUDY    41  23  48 CALM      30.33R
MT. VERNON     CLOUDY    37  22  54 E7        30.33S WCI  32
CENTRALIA*     CLOUDY    38  25  59 E8        30.31F WCI  32
SALEM*         CLOUDY    38  22  54 E6        30.33S WCI  33
METROPOLIS*    MOCLDY    40  24  52 E5        30.31R
$$

ILZ067-068-072-073-078-083-087-091-231100-
SOUTHEAST ILLINOIS

CITY           SKY/WX    TMP DP  RH WIND       PRES   REMARKS
LAWRENCEVILLE  PTCLDY    34  21  59 E10       30.37S WCI  26
FLORA*         PTCLDY    37  23  58 E8        30.36R WCI  30
FAIRFIELD*     CLEAR     36  23  59 E7        30.34R WCI  30
HARRISBURG*    CLOUDY    38  26  61 E12       30.32F WCI  30
ROBINSON*      PTCLDY    32  22  67 E6        30.39S WCI  26
CARMI*         PTCLDY    34  24  66 NE6       30.35R WCI  29
$$

ABBREVIATIONS USED IN REMARKS
   TC - TEMPERATURE IN CELSIUS
  WCI - WIND CHILL INDEX
   HX - HEAT INDEX
  VSB - VISIBILITY
$$





USA.gov is the U.S. government's official web portal to all federal, state and local government web resources and services.